Location: Rowland
(34.5359°N, 79.2929°W)
Time: 12:00:38
(UTC+00:00)

Vanguard 2 Rocket - Visible Passes

Search period start: 05 October 2022 00:00
Search period end: 15 October 2022 00:00
Orbit: 553 x 3323 km, 32.9° (Epoch: 04 October)

Date Brightness Start Highest point End Pass type
(mag) Time Alt. Az. Time Alt. Az. Time Alt. Az.
05 Oct 9.3 01:43:53 10° SW 02:00:14 47° SSE 02:00:14 47° SSE visible
05 Oct 10.4 04:01:36 10° WSW 04:06:01 21° WSW 04:06:01 21° WSW visible
05 Oct 8.6 08:49:22 15° SSE 08:49:22 15° SSE 08:50:10 10° SE visible
06 Oct 9.4 00:42:11 10° SSW 00:59:44 40° SSE 01:03:55 36° ESE visible
06 Oct 9.6 02:58:30 10° WSW 03:09:42 42° SW 03:09:42 42° SW visible
06 Oct 8.5 09:58:50 10° SSW 09:58:50 10° SSW 09:59:10 10° SSW visible
06 Oct 9.9 23:41:22 10° SSW 23:57:41 32° SE 00:07:32 19° E visible
07 Oct 9.1 01:55:44 10° SW 02:13:20 59° S 02:13:20 59° S visible
07 Oct 10.4 04:14:31 10° W 04:19:06 21° WSW 04:19:06 21° WSW visible
08 Oct 9.2 00:53:33 10° SW 01:12:32 52° SSE 01:16:54 44° ESE visible
08 Oct 9.6 03:11:10 10° WSW 03:22:40 44° WSW 03:22:40 44° WSW visible
08 Oct 9.7 23:52:07 10° SSW 00:10:20 43° SSE 00:20:24 24° E visible
09 Oct 9.0 02:08:04 10° WSW 02:26:11 69° S 02:26:11 69° S visible
09 Oct 10.4 04:27:35 10° W 04:31:57 21° W 04:31:57 21° W visible
09 Oct 10.2 22:51:36 10° SSW 23:08:10 34° SE 23:23:08 10° E visible
10 Oct 9.1 01:05:30 10° SW 01:25:21 63° SSE 01:29:37 53° ESE visible
10 Oct 9.7 03:24:05 10° W 03:35:23 43° WSW 03:35:23 43° WSW visible
11 Oct 9.6 00:03:37 10° SW 00:22:58 54° SSE 00:32:59 29° E visible
11 Oct 9.1 02:20:46 10° WSW 02:38:45 73° SW 02:38:45 73° SW visible
11 Oct 10.5 04:40:41 10° W 04:44:31 19° W 04:44:31 19° W visible
11 Oct 10.0 23:02:33 10° SSW 23:20:36 44° SE 23:36:19 12° E visible
12 Oct 9.0 01:17:54 10° WSW 01:38:14 73° SSE 01:42:04 60° ESE visible
12 Oct 9.8 03:37:09 10° W 03:47:49 40° W 03:47:49 40° W visible
13 Oct 9.5 00:15:40 10° SW 00:35:40 65° SSE 00:45:19 34° E visible
13 Oct 9.2 02:33:42 10° W 02:51:04 71° WSW 02:51:04 71° WSW visible
13 Oct 10.6 04:53:46 10° W 04:56:49 17° W 04:56:49 17° W visible
13 Oct 9.8 23:14:12 10° SW 23:33:05 56° SSE 23:48:32 16° E visible
14 Oct 9.0 01:30:38 10° WSW 01:51:13 80° S 01:54:16 68° ESE visible
14 Oct 9.9 03:50:14 10° W 04:00:01 37° W 04:00:01 37° W visible
